This demonstration page uses our WeatherBlox Daily Observations layout. Learn more.

Hourly Observations for February 10, 2019

Temp ( °F °C ) Dew Point ( °F °C ) Humidity (%) Winds ( mph kmh ) Pressure ( in mb ) Visibility ( mi km ) Precip ( " mm )
12:15 am 00:15 Cloudy 30 -1.2 18 -7.6 62 62 SE 21 33 30.13 1020 10 16.0934 0 0
12:35 am 00:35 Cloudy 30 -1.3 19 -7.5 63 63 SE 22 35 30.12 1020 10 16.0934 0 0
12:55 am 00:55 Partly Cloudy 29 -1.5 18 -7.6 64 64 SSE 12 19 30.13 1020 10 16.0934 0 0
1:15 am 01:15 Clear 29 -1.8 18 -7.6 65 65 SE 15 24 30.13 1020 10 16.0934 0 0
1:35 am 01:35 Clear 28 -2 19 -7.5 66 66 SE 14 22 30.13 1020 10 16.0934 0 0
1:55 am 01:55 Clear 28 -2.2 19 -7.5 67 67 SE 13 20 30.13 1020 10 16.0934 0 0
2:15 am 02:15 Clear 28 -2.5 19 -7.5 69 69 SE 16 26 30.12 1020 10 16.0934 0 0
2:35 am 02:35 Clear 27 -2.6 19 -7.5 69 69 SE 14 22 30.11 1020 10 16.0934 0 0
2:55 am 02:55 Partly Cloudy 28 -2.5 19 -7.4 69 69 SE 15 24 30.11 1020 10 16.0934 0 0
3:15 am 03:15 Clear 27 -2.6 19 -7.1 72 72 SE 15 24 30.1 1019 10 16.0934 0 0
3:35 am 03:35 Clear 27 -2.6 19 -7.1 72 72 SE 13 20 30.09 1019 10 16.0934 0 0
3:55 am 03:55 Partly Cloudy 27 -3 19 -7 74 74 SE 13 20 30.08 1019 10 16.0934 0 0
4:15 am 04:15 Mostly Cloudy 27 -2.9 20 -6.6 76 76 SE 12 19 30.09 1019 10 16.0934 0 0
4:35 am 04:35 Cloudy 27 -2.7 20 -6.5 75 75 SE 12 19 30.09 1019 10 16.0934 0 0
4:55 am 04:55 Cloudy 27 -2.6 21 -6.3 76 76 SE 10 17 30.08 1019 10 16.0934 0 0
5:15 am 05:15 Cloudy 27 -2.6 21 -6.2 77 77 SE 9 15 30.09 1019 10 16.0934 0 0
5:35 am 05:35 Cloudy 28 -2.5 21 -6.1 77 77 SE 7 11 30.09 1019 10 16.0934 0 0
5:55 am 05:55 Cloudy 28 -2.5 21 -6 77 77 SE 7 11 30.09 1019 10 16.0934 0 0
6:15 am 06:15 Cloudy 28 -2.5 21 -6 77 77 SE 8 13 30.09 1019 10 16.0934 0 0
6:35 am 06:35 Cloudy 28 -2.5 21 -6 77 77 SE 8 13 30.09 1019 10 16.0934 0 0
6:55 am 06:55 Cloudy 28 -2.5 22 -5.7 79 79 NNW 6 9 30.12 1020 10 16.0934 0 0
7:15 am 07:15 Cloudy 27 -2.7 22 -5.6 81 81 N 6 9 30.12 1020 10 16.0934 0 0
7:35 am 07:35 Cloudy 27 -3 22 -5.6 82 82 NNE 8 13 30.13 1020 10 16.0934 0 0
7:55 am 07:55 Cloudy 27 -2.9 22 -5.6 82 82 NE 9 15 30.12 1020 10 16.0934 0 0
8:15 am 08:15 Cloudy 27 -2.8 22 -5.7 81 81 NE 9 15 30.13 1020 10 16.0934 0 0
8:35 am 08:35 Cloudy 27 -2.6 22 -5.6 80 80 NE 8 13 30.14 1021 10 16.0934 0 0
8:55 am 08:55 Cloudy 28 -2.5 22 -5.6 80 80 ENE 7 11 30.16 1021 10 16.0934 0 0
9:15 am 09:15 Cloudy 28 -2.2 22 -5.5 78 78 E 3 6 30.16 1021 10 16.0934 0 0
9:35 am 09:35 Cloudy 29 -1.9 22 -5.3 78 78 N 7 11 30.16 1021 10 16.0934 0 0
9:55 am 09:55 Cloudy 28 -2 22 -5.4 78 78 N 6 9 30.17 1022 10 16.0934 0 0
10:15 am 10:15 Cloudy 29 -1.9 23 -5.2 78 78 N 8 13 30.17 1022 10 16.0934 0 0
10:35 am 10:35 Cloudy 29 -1.6 23 -5 78 78 N 7 11 30.18 1022 10 16.0934 0 0
10:55 am 10:55 Cloudy 29 -1.5 23 -4.9 78 78 N 8 13 30.17 1022 10 16.0934 0 0
11:15 am 11:15 Cloudy 30 -1.2 24 -4.7 77 77 N 7 11 30.18 1022 10 16.0934 0 0
11:35 am 11:35 Cloudy 30 -1.2 24 -4.6 78 78 NNW 8 13 30.18 1022 10 16.0934 0 0
11:55 am 11:55 Cloudy 30 -1.1 23 -4.9 76 76 N 8 13 30.18 1022 10 16.0934 0 0
12:15 pm 12:15 Cloudy 30 -0.9 24 -4.7 76 76 N 9 15 30.18 1022 10 16.0934 0 0
12:35 pm 12:35 Cloudy 31 -0.7 23 -4.9 74 74 N 9 15 30.18 1022 10 16.0934 0 0
12:55 pm 12:55 Cloudy 30 -1 23 -5.1 74 74 N 8 13 30.17 1022 10 16.0934 0 0
1:15 pm 13:15 Cloudy 30 -0.9 23 -5.2 73 73 N 9 15 30.17 1022 10 16.0934 0 0
1:35 pm 13:35 Cloudy 31 -0.8 22 -5.4 71 71 N 12 19 30.16 1021 10 16.0934 0 0
1:55 pm 13:55 Cloudy 31 -0.8 22 -5.6 70 70 N 9 15 30.15 1021 10 16.0934 0 0
2:15 pm 14:15 Cloudy 30 -1.1 21 -6 70 70 N 10 17 30.16 1021 10 16.0934 0 0
2:35 pm 14:35 Cloudy 30 -1 21 -6 69 69 N 12 19 30.14 1021 10 16.0934 0 0
2:55 pm 14:55 Cloudy 30 -1.2 21 -6.2 69 69 N 10 17 30.15 1021 10 16.0934 0 0
3:15 pm 15:15 Cloudy 30 -1.2 21 -6.1 70 70 N 10 17 30.14 1021 10 16.0934 0 0
3:35 pm 15:35 Cloudy 30 -1.2 20 -6.4 68 68 N 12 19 30.13 1020 10 16.0934 0 0
3:55 pm 15:55 Partly Cloudy 30 -1 20 -6.5 67 67 N 9 15 30.13 1020 10 16.0934 0 0
4:15 pm 16:15 Sunny 30 -1.2 21 -6.3 69 69 NNE 13 20 30.13 1020 10 16.0934 0 0
4:35 pm 16:35 Sunny 29 -1.6 20 -6.4 70 70 NNE 10 17 30.15 1021 10 16.0934 0 0
4:55 pm 16:55 Sunny 28 -2 20 -6.5 72 72 NE 9 15 30.16 1021 10 16.0934 0 0
5:15 pm 17:15 Sunny 28 -2.5 20 -6.5 74 74 NE 10 17 30.14 1021 10 16.0934 0 0
5:35 pm 17:35 Sunny 26 -3.1 20 -6.5 78 78 ENE 9 15 30.13 1020 10 16.0934 0 0
6:15 pm 18:15 Clear 23 -4.8 19 -7.3 83 83 NE 6 9 30.18 1022 10 16.0934 0 0
6:35 pm 18:35 Clear 20 -6.5 17 -8.5 86 86 NNE 7 11 30.2 1023 10 16.0934 0 0
6:55 pm 18:55 Clear 21 -6.2 18 -7.6 90 90 NE 8 13 30.19 1022 10 16.0934 0 0
7:15 pm 19:15 Clear 21 -6.2 18 -7.6 90 90 NE 8 13 30.19 1022 10 16.0934 0 0
7:35 pm 19:35 Clear 21 -6.1 19 -7.5 90 90 NE 8 13 30.17 1022 10 16.0934 0 0
7:55 pm 19:55 Mostly Cloudy 22 -5.5 21 -6.3 94 94 NE 8 13 30.17 1022 10 16.0934 0 0
8:15 pm 20:15 Cloudy 23 -4.8 22 -5.6 94 94 ENE 6 9 30.16 1021 10 16.0934 0 0
8:35 pm 20:35 Cloudy 25 -4.1 23 -5 94 94 ENE 10 17 30.15 1021 10 16.0934 0 0
8:55 pm 20:55 Cloudy 24 -4.2 24 -4.6 97 97 ENE 12 19 30.16 1021 7 11.26538 0 0
9:15 pm 21:15 Cloudy with Mist and Fog 24 -4.5 24 -4.7 99 99 ENE 13 20 30.16 1021 5 8.0467 0 0
9:35 pm 21:35 Cloudy with Mist and Fog 24 -4.6 24 -4.6 100 100 ENE 10 17 30.16 1021 4 6.43736 0 0
9:55 pm 21:55 Cloudy with Mist and Fog 24 -4.6 24 -4.6 100 100 ENE 10 17 30.15 1021 3 4.82802 0 0
10:15 pm 22:15 Cloudy with Mist and Fog 24 -4.7 24 -4.7 100 100 ENE 12 19 30.15 1021 3 4.82802 0 0
10:35 pm 22:35 Cloudy with Mist and Fog 24 -4.5 24 -4.5 100 100 ENE 13 20 30.14 1021 4 6.43736 0 0
10:55 pm 22:55 Cloudy with Mist and Fog 24 -4.5 24 -4.5 100 100 E 12 19 30.13 1020 4 6.43736 0 0
11:15 pm 23:15 Cloudy with Mist and Fog 24 -4.4 24 -4.4 100 100 E 13 20 30.12 1020 3 4.82802 0 0
11:35 pm 23:35 Cloudy with Mist and Fog 24 -4.2 24 -4.2 100 100 E 9 15 30.12 1020 2.5 4.02335 0 0
11:55 pm 23:55 Cloudy with Mist and Fog 25 -4.1 25 -4.1 100 100 E 12 19 30.11 1020 2.5 4.02335 0 0

Powered by AerisWeather